,,Stat6,,Stat2,,Stat8,,Stat9,,Stat10,,Wind1,,Wind1
time,status,PA1M_AVG,status,PR1M_SUM,status,RH1M_AVG,status,SR1M_AVG,status,TA1M_AVG,status,W1dAve1m,status,W1sAve1m
2009-03-07, 00:00:00,VALID,918.73,VALID,0,VALID,100,VALID,-0.0339617,VALID,20.7623,VALID,41,VALID,0
2009-03-07, 00:01:00,VALID,918.725,VALID,0,VALID,100,VALID,-0.0679233,VALID,20.7525,VALID,37,VALID,0
2009-03-07, 00:02:00,VALID,918.706,VALID,0,VALID,100,VALID,-0.0509425,VALID,20.7601,VALID,24,VALID,0
2009-03-07, 00:03:00,VALID,918.705,VALID,0,VALID,100,VALID,0,VALID,20.7847,VALID,21,VALID,0
2009-03-07, 00:04:00,VALID,918.694,VALID,0,VALID,100,VALID,0,VALID,20.749,VALID,8,VALID,0
2009-03-07, 00:05:00,VALID,918.695,VALID,0,VALID,100,VALID,-0.0169808,VALID,20.7461,VALID,11,VALID,0
2009-03-07, 00:06:00,VALID,918.68,VALID,0,VALID,100,VALID,-0.0339617,VALID,20.7493,VALID,11,VALID,0
2009-03-07, 00:07:00,VALID,918.663,VALID,0.2,VALID,100,VALID,-0.0339617,VALID,20.7361,VALID,11,VALID,0
2009-03-07, 00:08:00,VALID,918.661,VALID,0,VALID,100,VALID,-0.0509425,VALID,20.7755,VALID,11,VALID,0
2009-03-07, 00:09:00,VALID,918.648,VALID,0,VALID,100,VALID,-0.0679233,VALID,20.808,VALID,11,VALID,0
2009-03-07, 00:10:00,VALID,918.633,VALID,0,VALID,100,VALID,-0.0509425,VALID,20.8142,VALID,353,VALID,0
2009-03-07, 00:11:00,VALID,918.628,VALID,0,VALID,100,VALID,-0.0339617,VALID,20.795,VALID,21,VALID,0
2009-03-07, 00:12:00,VALID,918.605,VALID,0,VALID,100,VALID,-0.0679233,VALID,20.7525,VALID,38,VALID,0.0383185
2009-03-07, 00:13:00,VALID,918.602,VALID,0,VALID,100,VALID,-0.101885,VALID,20.7425,VALID,33,VALID,0.0518466
2009-03-07, 00:14:00,VALID,918.587,VALID,0,VALID,100,VALID,-0.0169808,VALID,20.7458,VALID,28,VALID,0
2009-03-07, 00:15:00,VALID,918.577,VALID,0,VALID,100,VALID,-0.0509425,VALID,20.7688,VALID,33,VALID,0
2009-03-07, 00:16:00,VALID,918.553,VALID,0,VALID,100,VALID,-0.0169808,VALID,20.7847,VALID,35,VALID,0
2009-03-07, 00:17:00,VALID,918.529,VALID,0,VALID,100,VALID,-0.0679233,VALID,20.7623,VALID,37,VALID,0
2009-03-07, 00:18:00,VALID,918.493,VALID,0,VALID,100,VALID,-0.0339617,VALID,20.7425,VALID,46,VALID,0
2009-03-07, 00:19:00,VALID,918.458,VALID,0,VALID,100,VALID,-0.0169808,VALID,20.7328,VALID,29,VALID,0
2009-03-07, 00:20:00,VALID,918.418,VALID,0,VALID,100,VALID,-0.0509425,VALID,20.7168,VALID,25,VALID,0
2009-03-07, 00:21:00,VALID,918.386,VALID,0.2,VALID,100,VALID,-0.0509425,VALID,20.7271,VALID,10,VALID,0.00260417
2009-03-07, 00:22:00,VALID,918.375,VALID,0,VALID,100,VALID,-0.0339617,VALID,20.7036,VALID,15,VALID,0
2009-03-07, 00:23:00,VALID,918.364,VALID,0,VALID,100,VALID,-0.0849042,VALID,20.7071,VALID,15,VALID,0
2009-03-07, 00:24:00,VALID,918.345,VALID,0,VALID,100,VALID,-0.101885,VALID,20.7006,VALID,15,VALID,0
2009-03-07, 00:25:00,VALID,918.342,VALID,0,VALID,100,VALID,-0.0679233,VALID,20.7141,VALID,3,VALID,0
2009-03-07, 00:26:00,VALID,918.311,VALID,0,VALID,100,VALID,-0.0679233,VALID,20.7044,VALID,353,VALID,0
2009-03-07, 00:27:00,VALID,918.296,VALID,0,VALID,100,VALID,-0.0849042,VALID,20.7106,VALID,359,VALID,0
2009-03-07, 00:28:00,VALID,918.273,VALID,0,VALID,100,VALID,-0.0849042,VALID,20.7271,VALID,21,VALID,0
2009-03-07, 00:29:00,VALID,918.27,VALID,0,VALID,100,VALID,-0.101885,VALID,20.7431,VALID,23,VALID,0
2009-03-07, 00:30:00,VALID,918.249,VALID,0,VALID,100,VALID,-0.101885,VALID,20.7368,VALID,24,VALID,0
2009-03-07, 00:31:00,VALID,918.22,VALID,0,VALID,100,VALID,-0.0339617,VALID,20.7239,VALID,19,VALID,0
2009-03-07, 00:32:00,VALID,918.211,VALID,0,VALID,100,VALID,-0.0509425,VALID,20.7236,VALID,27,VALID,0
2009-03-07, 00:33:00,VALID,918.175,VALID,0,VALID,100,VALID,-0.0849042,VALID,20.7106,VALID,32,VALID,0
2009-03-07, 00:34:00,VALID,918.154,VALID,0,VALID,100,VALID,-0.101885,VALID,20.7009,VALID,29,VALID,0
2009-03-07, 00:35:00,VALID,918.137,VALID,0,VALID,100,VALID,-0.0849042,VALID,20.6974,VALID,37,VALID,0
2009-03-07, 00:36:00,VALID,918.133,VALID,0,VALID,100,VALID,-0.101885,VALID,20.7233,VALID,31,VALID,0
2009-03-07, 00:37:00,VALID,918.117,VALID,0,VALID,100,VALID,-0.101885,VALID,20.7466,VALID,24,VALID,0
2009-03-07, 00:38:00,VALID,918.107,VALID,0,VALID,100,VALID,-0.0849042,VALID,20.7433,VALID,30,VALID,0
2009-03-07, 00:39:00,VALID,918.088,VALID,0,VALID,100,VALID,-0.0849042,VALID,20.7396,VALID,32,VALID,0.0121094
2009-03-07, 00:40:00,VALID,918.078,VALID,0,VALID,100,VALID,-0.101885,VALID,20.7439,VALID,39,VALID,0.0491071
2009-03-07, 00:41:00,VALID,918.051,VALID,0,VALID,100,VALID,-0.0679233,VALID,20.7531,VALID,27,VALID,0.161285
2009-03-07, 00:42:00,VALID,918.037,VALID,0,VALID,100,VALID,-0.0509425,VALID,20.7233,VALID,19,VALID,0
2009-03-07, 00:43:00,VALID,918.034,VALID,0,VALID,100,VALID,-0.0339617,VALID,20.7006,VALID,19,VALID,0.039253
2009-03-07, 00:44:00,VALID,918.021,VALID,0,VALID,100,VALID,-0.0849042,VALID,20.7074,VALID,19,VALID,0.00710227
2009-03-07, 00:45:00,VALID,918.002,VALID,0,VALID,100,VALID,-0.0849042,VALID,20.6909,VALID,18,VALID,0
2009-03-07, 00:46:00,VALID,917.977,VALID,0,VALID,100,VALID,-0.0509425,VALID,20.6971,VALID,18,VALID,0
2009-03-07, 00:47:00,VALID,917.972,VALID,0,VALID,100,VALID,-0.0509425,VALID,20.7074,VALID,18,VALID,0
2009-03-07, 00:48:00,VALID,917.964,VALID,0,VALID,100,VALID,-0.0509425,VALID,20.7133,VALID,18,VALID,0
2009-03-07, 00:49:00,VALID,917.952,VALID,0,VALID,100,VALID,-0.0849042,VALID,20.7168,VALID,18,VALID,0
2009-03-07, 00:50:00,VALID,917.929,VALID,0,VALID,100,VALID,-0.0509425,VALID,20.7336,VALID,13,VALID,0
2009-03-07, 00:51:00,VALID,917.923,VALID,0,VALID,100,VALID,-0.0509425,VALID,20.7009,VALID,4,VALID,0
2009-03-07, 00:52:00,VALID,917.918,VALID,0,VALID,100,VALID,-0.101885,VALID,20.7079,VALID,8,VALID,0
2009-03-07, 00:53:00,VALID,917.918,VALID,0,VALID,100,VALID,-0.0849042,VALID,20.7039,VALID,12,VALID,0
2009-03-07, 00:54:00,VALID,917.899,VALID,0,VALID,100,VALID,-0.0849042,VALID,20.6974,VALID,12,VALID,0
2009-03-07, 00:55:00,VALID,917.88,VALID,0,VALID,100,VALID,-0.0679233,VALID,20.6976,VALID,11,VALID,0
2009-03-07, 00:56:00,VALID,917.851,VALID,0,VALID,100,VALID,-0.0169808,VALID,20.7036,VALID,17,VALID,0
2009-03-07, 00:57:00,VALID,917.831,VALID,0,VALID,100,VALID,-0.101885,VALID,20.7104,VALID,18,VALID,0
2009-03-07, 00:58:00,VALID,917.796,VALID,0,VALID,100,VALID,-0.0679233,VALID,20.6644,VALID,30,VALID,0
2009-03-07, 00:59:00,VALID,917.771,VALID,0,VALID,100,VALID,-0.0849042,VALID,20.6517,VALID,30,VALID,0
2009-03-07, 01:00:00,VALID,917.775,VALID,0,VALID,100,VALID,-0.0509425,VALID,20.6646,VALID,35,VALID,0
2009-03-07, 01:01:00,VALID,917.759,VALID,0,VALID,100,VALID,-0.0849042,VALID,20.6876,VALID,35,VALID,0
2009-03-07, 01:02:00,VALID,917.749,VALID,0,VALID,100,VALID,-0.101885,VALID,20.7101,VALID,35,VALID,0
2009-03-07, 01:03:00,VALID,917.739,VALID,0,VALID,100,VALID,-0.0509425,VALID,20.7458,VALID,35,VALID,0
2009-03-07, 01:04:00,VALID,917.751,VALID,0,VALID,100,VALID,-0.0849042,VALID,20.7523,VALID,35,VALID,0
2009-03-07, 01:05:00,VALID,917.737,VALID,0,VALID,100,VALID,-0.0339617,VALID,20.742,VALID,35,VALID,0
2009-03-07, 01:06:00,VALID,917.736,VALID,0,VALID,100,VALID,-0.0679233,VALID,20.7166,VALID,35,VALID,0
2009-03-07, 01:07:00,VALID,917.723,VALID,0,VALID,100,VALID,-0.0509425,VALID,20.6841,VALID,35,VALID,0
2009-03-07, 01:08:00,VALID,917.7,VALID,0,VALID,100,VALID,-0.0509425,VALID,20.6746,VALID,17,VALID,0
2009-03-07, 01:09:00,VALID,917.682,VALID,0,VALID,100,VALID,-0.0509425,VALID,20.6779,VALID,5,VALID,0
2009-03-07, 01:10:00,VALID,917.675,VALID,0,VALID,100,VALID,-0.0849042,VALID,20.6514,VALID,350,VALID,0
2009-03-07, 01:11:00,VALID,917.675,VALID,0,VALID,100,VALID,-0.0679233,VALID,20.6649,VALID,350,VALID,0
2009-03-07, 01:12:00,VALID,917.7,VALID,0,VALID,100,VALID,-0.0509425,VALID,20.6679,VALID,350,VALID,0
2009-03-07, 01:13:00,VALID,917.706,VALID,0,VALID,100,VALID,-0.0339617,VALID,20.6582,VALID,350,VALID,0
2009-03-07, 01:14:00,VALID,917.691,VALID,0,VALID,100,VALID,-0.0339617,VALID,20.626,VALID,265,VALID,0
2009-03-07, 01:15:00,VALID,917.68,VALID,0,VALID,100,VALID,-0.0339617,VALID,20.6354,VALID,310,VALID,0
2009-03-07, 01:16:00,VALID,917.672,VALID,0,VALID,100,VALID,-0.0849042,VALID,20.6522,VALID,323,VALID,0
2009-03-07, 01:17:00,VALID,917.67,VALID,0,VALID,100,VALID,-0.0679233,VALID,20.6684,VALID,3,VALID,0
2009-03-07, 01:18:00,VALID,917.672,VALID,0,VALID,100,VALID,-0.0339617,VALID,20.6746,VALID,27,VALID,0
2009-03-07, 01:19:00,VALID,917.666,VALID,0,VALID,100,VALID,-0.0679233,VALID,20.6811,VALID,33,VALID,0
2009-03-07, 01:20:00,VALID,917.662,VALID,0,VALID,100,VALID,-0.0169808,VALID,20.6579,VALID,41,VALID,0
2009-03-07, 01:21:00,VALID,917.675,VALID,0,VALID,100,VALID,-0.0509425,VALID,20.6746,VALID,40,VALID,0
2009-03-07, 01:22:00,VALID,917.665,VALID,0,VALID,100,VALID,-0.0339617,VALID,20.6906,VALID,40,VALID,0
2009-03-07, 01:23:00,VALID,917.656,VALID,0,VALID,100,VALID,-0.0509425,VALID,20.6844,VALID,73,VALID,0
2009-03-07, 01:24:00,VALID,917.662,VALID,0,VALID,100,VALID,-0.0339617,VALID,20.7039,VALID,75,VALID,0
2009-03-07, 01:25:00,VALID,917.665,VALID,0,VALID,100,VALID,-0.0169808,VALID,20.6941,VALID,78,VALID,0
2009-03-07, 01:26:00,VALID,917.651,VALID,0,VALID,100,VALID,0,VALID,20.6549,VALID,94,VALID,0
2009-03-07, 01:27:00,VALID,917.663,VALID,0,VALID,100,VALID,-0.0509425,VALID,20.6289,VALID,94,VALID,0
2009-03-07, 01:28:00,VALID,917.642,VALID,0,VALID,100,VALID,-0.0509425,VALID,20.5932,VALID,93,VALID,0
2009-03-07, 01:29:00,VALID,917.626,VALID,0,VALID,100,VALID,-0.0339617,VALID,20.5511,VALID,168,VALID,0
2009-03-07, 01:30:00,VALID,917.611,VALID,0,VALID,100,VALID,-0.0169808,VALID,20.5578,VALID,41,VALID,0.0527344
2009-03-07, 01:31:00,VALID,917.599,VALID,0,VALID,100,VALID,-0.0339617,VALID,20.5803,VALID,23,VALID,0
2009-03-07, 01:32:00,VALID,917.58,VALID,0,VALID,100,VALID,0,VALID,20.5995,VALID,26,VALID,0.000400641
2009-03-07, 01:33:00,VALID,917.563,VALID,0,VALID,100,VALID,-0.0169808,VALID,20.6125,VALID,19,VALID,0.225836
2009-03-07, 01:34:00,VALID,917.552,VALID,0,VALID,100,VALID,-0.0339617,VALID,20.6354,VALID,12,VALID,0
2009-03-07, 01:35:00,VALID,917.553,VALID,0,VALID,100,VALID,-0.0679233,VALID,20.6382,VALID,8,VALID,0.0012718
2009-03-07, 01:36:00,VALID,917.551,VALID,0,VALID,100,VALID,-0.0339617,VALID,20.616,VALID,52,VALID,0
2009-03-07, 01:37:00,VALID,917.53,VALID,0,VALID,100,VALID,0,VALID,20.6419,VALID,50,VALID,0
2009-03-07, 01:38:00,VALID,917.537,VALID,0,VALID,100,VALID,-0.0339617,VALID,20.6552,VALID,51,VALID,0
2009-03-07, 01:39:00,VALID,917.547,VALID,0,VALID,100,VALID,-0.0849042,VALID,20.6846,VALID,51,VALID,0
2009-03-07, 01:40:00,VALID,917.549,VALID,0,VALID,100,VALID,-0.101885,VALID,20.6744,VALID,56,VALID,0
2009-03-07, 01:41:00,VALID,917.54,VALID,0.2,VALID,100,VALID,-0.0509425,VALID,20.6514,VALID,56,VALID,0
2009-03-07, 01:42:00,VALID,917.534,VALID,0,VALID,100,VALID,-0.0509425,VALID,20.6357,VALID,56,VALID,0
2009-03-07, 01:43:00,VALID,917.511,VALID,0,VALID,100,VALID,-0.0679233,VALID,20.6322,VALID,56,VALID,0
2009-03-07, 01:44:00,VALID,917.509,VALID,0,VALID,100,VALID,-0.0509425,VALID,20.6425,VALID,56,VALID,0
2009-03-07, 01:45:00,VALID,917.492,VALID,0,VALID,100,VALID,-0.0509425,VALID,20.6646,VALID,56,VALID,0
2009-03-07, 01:46:00,VALID,917.476,VALID,0,VALID,100,VALID,-0.0849042,VALID,20.6974,VALID,56,VALID,0
2009-03-07, 01:47:00,VALID,917.457,VALID,0,VALID,100,VALID,-0.0509425,VALID,20.6971,VALID,53,VALID,0
2009-03-07, 01:48:00,VALID,917.436,VALID,0,VALID,100,VALID,-0.0339617,VALID,20.6909,VALID,50,VALID,0
2009-03-07, 01:49:00,VALID,917.425,VALID,0,VALID,100,VALID,-0.0339617,VALID,20.6836,VALID,50,VALID,0
2009-03-07, 01:50:00,VALID,917.409,VALID,0,VALID,100,VALID,-0.0679233,VALID,20.6874,VALID,49,VALID,0
2009-03-07, 01:51:00,VALID,917.394,VALID,0,VALID,100,VALID,0,VALID,20.6744,VALID,44,VALID,0
2009-03-07, 01:52:00,VALID,917.371,VALID,0,VALID,100,VALID,-0.0169808,VALID,20.6711,VALID,43,VALID,0
2009-03-07, 01:53:00,VALID,917.366,VALID,0,VALID,100,VALID,-0.0339617,VALID,20.6552,VALID,37,VALID,0
2009-03-07, 01:54:00,VALID,917.339,VALID,0,VALID,100,VALID,-0.0679233,VALID,20.6225,VALID,37,VALID,0
2009-03-07, 01:55:00,VALID,917.331,VALID,0,VALID,100,VALID,-0.0339617,VALID,20.5838,VALID,58,VALID,0
2009-03-07, 01:56:00,VALID,917.343,VALID,0.2,VALID,100,VALID,-0.0679233,VALID,20.564,VALID,24,VALID,0
2009-03-07, 01:57:00,VALID,917.322,VALID,0,VALID,100,VALID,-0.0509425,VALID,20.5578,VALID,38,VALID,0
2009-03-07, 01:58:00,VALID,917.316,VALID,0,VALID,100,VALID,-0.0339617,VALID,20.5446,VALID,33,VALID,0
2009-03-07, 01:59:00,VALID,917.316,VALID,0,VALID,100,VALID,-0.0339617,VALID,20.5413,VALID,25,VALID,0
2009-03-07, 02:00:00,VALID,917.314,VALID,0,VALID,100,VALID,-0.0339617,VALID,20.5543,VALID,28,VALID,0.0273438
2009-03-07, 02:01:00,VALID,917.301,VALID,0,VALID,100,VALID,-0.0339617,VALID,20.5413,VALID,35,VALID,0.0695858
2009-03-07, 02:02:00,VALID,917.297,VALID,0,VALID,100,VALID,-0.0339617,VALID,20.5575,VALID,38,VALID,0.0127668
2009-03-07, 02:03:00,VALID,917.292,VALID,0,VALID,100,VALID,-0.0509425,VALID,20.59,VALID,29,VALID,0
2009-03-07, 02:04:00,VALID,917.281,VALID,0,VALID,100,VALID,-0.0339617,VALID,20.603,VALID,28,VALID,0
2009-03-07, 02:05:00,VALID,917.253,VALID,0,VALID,100,VALID,-0.0509425,VALID,20.5965,VALID,29,VALID,0.0352471
2009-03-07, 02:06:00,VALID,917.258,VALID,0,VALID,100,VALID,0,VALID,20.6062,VALID,24,VALID,0
2009-03-07, 02:07:00,VALID,917.231,VALID,0,VALID,100,VALID,-0.0169808,VALID,20.616,VALID,20,VALID,0
2009-03-07, 02:08:00,VALID,917.231,VALID,0,VALID,100,VALID,-0.0169808,VALID,20.5995,VALID,24,VALID,0
2009-03-07, 02:09:00,VALID,917.239,VALID,0,VALID,100,VALID,0,VALID,20.5413,VALID,38,VALID,0
2009-03-07, 02:10:00,VALID,917.226,VALID,0,VALID,100,VALID,-0.0509425,VALID,20.5186,VALID,38,VALID,0
2009-03-07, 02:11:00,VALID,917.207,VALID,0,VALID,100,VALID,-0.0339617,VALID,20.5251,VALID,38,VALID,0
2009-03-07, 02:12:00,VALID,917.206,VALID,0,VALID,100,VALID,-0.0169808,VALID,20.5218,VALID,54,VALID,0
2009-03-07, 02:13:00,VALID,917.19,VALID,0,VALID,100,VALID,-0.0339617,VALID,20.5121,VALID,3,VALID,0.057706
2009-03-07, 02:14:00,VALID,917.173,VALID,0,VALID,100,VALID,0,VALID,20.5283,VALID,35,VALID,0
2009-03-07, 02:15:00,VALID,917.174,VALID,0,VALID,100,VALID,-0.0169808,VALID,20.5316,VALID,27,VALID,0.0821265
2009-03-07, 02:16:00,VALID,917.172,VALID,0,VALID,100,VALID,-0.0679233,VALID,20.5346,VALID,47,VALID,0
2009-03-07, 02:17:00,VALID,917.184,VALID,0,VALID,100,VALID,-0.0169808,VALID,20.5478,VALID,34,VALID,0.00053267
2009-03-07, 02:18:00,VALID,917.178,VALID,0,VALID,100,VALID,-0.0169808,VALID,20.5218,VALID,231,VALID,0.000726744
2009-03-07, 02:19:00,VALID,917.176,VALID,0,VALID,100,VALID,-0.0509425,VALID,20.5089,VALID,231,VALID,0
2009-03-07, 02:20:00,VALID,917.174,VALID,0,VALID,100,VALID,-0.0339617,VALID,20.5056,VALID,321,VALID,0
2009-03-07, 02:21:00,VALID,917.159,VALID,0,VALID,100,VALID,-0.0679233,VALID,20.4959,VALID,53,VALID,0.037609
2009-03-07, 02:22:00,VALID,917.172,VALID,0,VALID,100,VALID,-0.0509425,VALID,20.4634,VALID,292,VALID,0.00260417
2009-03-07, 02:23:00,VALID,917.165,VALID,0,VALID,100,VALID,-0.0509425,VALID,20.4894,VALID,40,VALID,0.0669922
2009-03-07, 02:24:00,VALID,917.181,VALID,0,VALID,100,VALID,-0.0339617,VALID,20.4926,VALID,44,VALID,0.0322516
2009-03-07, 02:25:00,VALID,917.175,VALID,0,VALID,100,VALID,-0.0509425,VALID,20.5064,VALID,36,VALID,0
2009-03-07, 02:26:00,VALID,917.173,VALID,0,VALID,100,VALID,-0.0849042,VALID,20.4959,VALID,35,VALID,0
2009-03-07, 02:27:00,VALID,917.182,VALID,0,VALID,100,VALID,-0.0849042,VALID,20.5226,VALID,34,VALID,0
2009-03-07, 02:28:00,VALID,917.172,VALID,0,VALID,100,VALID,-0.0169808,VALID,20.5218,VALID,4,VALID,0
2009-03-07, 02:29:00,VALID,917.178,VALID,0,VALID,100,VALID,-0.0339617,VALID,20.5475,VALID,29,VALID,0.00109012
2009-03-07, 02:30:00,VALID,917.168,VALID,0,VALID,100,VALID,-0.0509425,VALID,20.5381,VALID,33,VALID,0
2009-03-07, 02:31:00,VALID,917.168,VALID,0,VALID,100,VALID,-0.0679233,VALID,20.5448,VALID,35,VALID,0
2009-03-07, 02:32:00,VALID,917.179,VALID,0,VALID,100,VALID,-0.0509425,VALID,20.5251,VALID,39,VALID,0
2009-03-07, 02:33:00,VALID,917.18,VALID,0,VALID,100,VALID,-0.0339617,VALID,20.4989,VALID,49,VALID,0
2009-03-07, 02:34:00,VALID,917.176,VALID,0,VALID,100,VALID,-0.0509425,VALID,20.5118,VALID,49,VALID,0
2009-03-07, 02:35:00,VALID,917.184,VALID,0,VALID,100,VALID,-0.0169808,VALID,20.5151,VALID,49,VALID,0
2009-03-07, 02:36:00,VALID,917.187,VALID,0,VALID,100,VALID,-0.0509425,VALID,20.5218,VALID,43,VALID,0
2009-03-07, 02:37:00,VALID,917.191,VALID,0,VALID,100,VALID,-0.0849042,VALID,20.5153,VALID,39,VALID,0
2009-03-07, 02:38:00,VALID,917.175,VALID,0,VALID,100,VALID,-0.0509425,VALID,20.5281,VALID,31,VALID,0
2009-03-07, 02:39:00,VALID,917.166,VALID,0,VALID,100,VALID,-0.0169808,VALID,20.5186,VALID,26,VALID,0
2009-03-07, 02:40:00,VALID,917.153,VALID,0,VALID,100,VALID,-0.0679233,VALID,20.5121,VALID,21,VALID,0
2009-03-07, 02:41:00,VALID,917.152,VALID,0,VALID,100,VALID,-0.0679233,VALID,20.5056,VALID,14,VALID,0
2009-03-07, 02:42:00,VALID,917.161,VALID,0.2,VALID,100,VALID,-0.0849042,VALID,20.5089,VALID,19,VALID,0
2009-03-07, 02:43:00,VALID,917.158,VALID,0,VALID,100,VALID,-0.0509425,VALID,20.4926,VALID,10,VALID,0
2009-03-07, 02:44:00,VALID,917.161,VALID,0,VALID,100,VALID,-0.0169808,VALID,20.4891,VALID,26,VALID,0
2009-03-07, 02:45:00,VALID,917.145,VALID,0,VALID,100,VALID,-0.0339617,VALID,20.4991,VALID,26,VALID,0
2009-03-07, 02:46:00,VALID,917.142,VALID,0,VALID,100,VALID,0,VALID,20.5091,VALID,26,VALID,0.00130208
2009-03-07, 02:47:00,VALID,917.134,VALID,0,VALID,100,VALID,-0.0849042,VALID,20.5186,VALID,27,VALID,0
2009-03-07, 02:48:00,VALID,917.114,VALID,0,VALID,100,VALID,-0.0679233,VALID,20.5021,VALID,27,VALID,0.0522693
2009-03-07, 02:49:00,VALID,917.119,VALID,0,VALID,100,VALID,-0.0339617,VALID,20.4994,VALID,19,VALID,0
2009-03-07, 02:50:00,VALID,917.126,VALID,0,VALID,100,VALID,-0.0679233,VALID,20.4834,VALID,9,VALID,0.117588
2009-03-07, 02:51:00,VALID,917.117,VALID,0,VALID,100,VALID,-0.0849042,VALID,20.4277,VALID,354,VALID,0.0816592
2009-03-07, 02:52:00,VALID,917.105,VALID,0,VALID,100,VALID,-0.0679233,VALID,20.428,VALID,12,VALID,0.00138889
2009-03-07, 02:53:00,VALID,917.097,VALID,0,VALID,100,VALID,-0.0509425,VALID,20.4539,VALID,23,VALID,0
2009-03-07, 02:54:00,VALID,917.097,VALID,0,VALID,100,VALID,-0.0509425,VALID,20.4407,VALID,16,VALID,0
2009-03-07, 02:55:00,VALID,917.08,VALID,0,VALID,100,VALID,-0.0509425,VALID,20.4375,VALID,19,VALID,0
2009-03-07, 02:56:00,VALID,917.065,VALID,0,VALID,100,VALID,-0.0679233,VALID,20.415,VALID,9,VALID,0.0431641
2009-03-07, 02:57:00,VALID,917.051,VALID,0,VALID,100,VALID,-0.0679233,VALID,20.392,VALID,17,VALID,0
2009-03-07, 02:58:00,VALID,917.046,VALID,0,VALID,100,VALID,-0.0509425,VALID,20.379,VALID,26,VALID,0.0490234
2009-03-07, 02:59:00,VALID,917.035,VALID,0,VALID,100,VALID,-0.0509425,VALID,20.3985,VALID,31,VALID,0
2009-03-07, 03:00:00,VALID,917.036,VALID,0,VALID,100,VALID,-0.0849042,VALID,20.4047,VALID,27,VALID,0
2009-03-07, 03:01:00,VALID,917.033,VALID,0,VALID,100,VALID,-0.0509425,VALID,20.392,VALID,24,VALID,0.00093006
2009-03-07, 03:02:00,VALID,917.01,VALID,0,VALID,100,VALID,-0.0849042,VALID,20.3788,VALID,19,VALID,0.0394345
2009-03-07, 03:03:00,VALID,917.002,VALID,0,VALID,100,VALID,-0.0169808,VALID,20.3758,VALID,22,VALID,0.00381541
2009-03-07, 03:04:00,VALID,917.006,VALID,0,VALID,100,VALID,-0.0679233,VALID,20.382,VALID,22,VALID,0
2009-03-07, 03:05:00,VALID,917.003,VALID,0,VALID,100,VALID,-0.0509425,VALID,20.3858,VALID,27,VALID,0
2009-03-07, 03:06:00,VALID,916.991,VALID,0,VALID,100,VALID,-0.0509425,VALID,20.3825,VALID,25,VALID,0.0191406
2009-03-07, 03:07:00,VALID,916.99,VALID,0,VALID,100,VALID,-0.0509425,VALID,20.3893,VALID,27,VALID,0.0186738
2009-03-07, 03:08:00,VALID,916.963,VALID,0,VALID,100,VALID,-0.0849042,VALID,20.379,VALID,30,VALID,0.00117188
2009-03-07, 03:09:00,VALID,916.96,VALID,0,VALID,100,VALID,-0.0509425,VALID,20.3823,VALID,26,VALID,0
2009-03-07, 03:10:00,VALID,916.943,VALID,0,VALID,100,VALID,-0.0679233,VALID,20.379,VALID,26,VALID,0
2009-03-07, 03:11:00,VALID,916.944,VALID,0,VALID,100,VALID,-0.0849042,VALID,20.3985,VALID,15,VALID,0
2009-03-07, 03:12:00,VALID,916.946,VALID,0,VALID,100,VALID,-0.0509425,VALID,20.379,VALID,5,VALID,0
2009-03-07, 03:13:00,VALID,916.939,VALID,0,VALID,100,VALID,-0.0509425,VALID,20.3693,VALID,12,VALID,0
2009-03-07, 03:14:00,VALID,916.932,VALID,0,VALID,100,VALID,-0.0339617,VALID,20.3628,VALID,15,VALID,0
2009-03-07, 03:15:00,VALID,916.925,VALID,0,VALID,100,VALID,0,VALID,20.3661,VALID,28,VALID,0.0289418
2009-03-07, 03:16:00,VALID,916.913,VALID,0,VALID,100,VALID,0,VALID,20.3753,VALID,23,VALID,0.0820313
2009-03-07, 03:17:00,VALID,916.887,VALID,0,VALID,100,VALID,-0.0169808,VALID,20.398,VALID,21,VALID,0.00996094
2009-03-07, 03:18:00,VALID,916.86,VALID,0,VALID,100,VALID,-0.0339617,VALID,20.418,VALID,34,VALID,0.00195313
2009-03-07, 03:19:00,VALID,916.846,VALID,0,VALID,100,VALID,0,VALID,20.4172,VALID,38,VALID,0
2009-03-07, 03:20:00,VALID,916.84,VALID,0,VALID,100,VALID,-0.0339617,VALID,20.4212,VALID,41,VALID,0.0445131
2009-03-07, 03:21:00,VALID,916.831,VALID,0,VALID,100,VALID,-0.0169808,VALID,20.4177,VALID,41,VALID,0
2009-03-07, 03:22:00,VALID,916.829,VALID,0,VALID,100,VALID,-0.0509425,VALID,20.4145,VALID,41,VALID,0
2009-03-07, 03:23:00,VALID,916.827,VALID,0,VALID,100,VALID,-0.0169808,VALID,20.4099,VALID,41,VALID,0
2009-03-07, 03:24:00,VALID,916.809,VALID,0,VALID,100,VALID,0.0509425,VALID,20.3992,VALID,41,VALID,0
2009-03-07, 03:25:00,VALID,916.822,VALID,0,VALID,100,VALID,0.0339617,VALID,20.4092,VALID,41,VALID,0
2009-03-07, 03:26:00,VALID,916.796,VALID,0,VALID,100,VALID,0.101885,VALID,20.4059,VALID,41,VALID,0
2009-03-07, 03:27:00,VALID,916.769,VALID,0,VALID,100,VALID,0.0509425,VALID,20.4059,VALID,41,VALID,0
2009-03-07, 03:28:00,VALID,916.743,VALID,0,VALID,100,VALID,0.0509425,VALID,20.4127,VALID,41,VALID,0
2009-03-07, 03:29:00,VALID,916.747,VALID,0,VALID,100,VALID,0.0849042,VALID,20.4064,VALID,41,VALID,0
2009-03-07, 03:30:00,VALID,916.728,VALID,0,VALID,100,VALID,0.0169808,VALID,20.3929,VALID,41,VALID,0
2009-03-07, 03:31:00,VALID,916.72,VALID,0,VALID,100,VALID,0.0339617,VALID,20.3999,VALID,41,VALID,0
2009-03-07, 03:32:00,VALID,916.723,VALID,0,VALID,100,VALID,0.0169808,VALID,20.3835,VALID,41,VALID,0
2009-03-07, 03:33:00,VALID,916.704,VALID,0,VALID,100,VALID,-0.0169808,VALID,20.3705,VALID,41,VALID,0
2009-03-07, 03:34:00,VALID,916.693,VALID,0,VALID,100,VALID,0.0169808,VALID,20.3902,VALID,41,VALID,0
2009-03-07, 03:35:00,VALID,916.679,VALID,0,VALID,100,VALID,0.0169808,VALID,20.4164,VALID,40,VALID,0
2009-03-07, 03:36:00,VALID,916.678,VALID,0,VALID,100,VALID,0.0169808,VALID,20.4162,VALID,38,VALID,0
2009-03-07, 03:37:00,VALID,916.677,VALID,0,VALID,100,VALID,0.0339617,VALID,20.4035,VALID,38,VALID,0
2009-03-07, 03:38:00,VALID,916.673,VALID,0,VALID,100,VALID,-0.0509425,VALID,20.3623,VALID,38,VALID,0
2009-03-07, 03:39:00,VALID,916.67,VALID,0,VALID,100,VALID,-0.0509425,VALID,20.3461,VALID,38,VALID,0
2009-03-07, 03:40:00,VALID,916.666,VALID,0,VALID,100,VALID,0,VALID,20.3456,VALID,38,VALID,0
2009-03-07, 03:41:00,VALID,916.661,VALID,0,VALID,100,VALID,-0.0679233,VALID,20.3561,VALID,36,VALID,0
2009-03-07, 03:42:00,VALID,916.648,VALID,0,VALID,100,VALID,-0.0509425,VALID,20.3653,VALID,37,VALID,0
2009-03-07, 03:43:00,VALID,916.637,VALID,0,VALID,100,VALID,-0.0339617,VALID,20.3618,VALID,32,VALID,0
2009-03-07, 03:44:00,VALID,916.624,VALID,0,VALID,100,VALID,-0.0509425,VALID,20.3558,VALID,30,VALID,0.00260417
2009-03-07, 03:45:00,VALID,916.617,VALID,0,VALID,100,VALID,-0.0509425,VALID,20.3388,VALID,29,VALID,0.117914
2009-03-07, 03:46:00,VALID,916.619,VALID,0,VALID,100,VALID,-0.0509425,VALID,20.3588,VALID,33,VALID,0.0530523
2009-03-07, 03:47:00,VALID,916.644,VALID,0,VALID,100,VALID,-0.0339617,VALID,20.3488,VALID,31,VALID,0
2009-03-07, 03:48:00,VALID,916.637,VALID,0,VALID,100,VALID,-0.0339617,VALID,20.3558,VALID,34,VALID,0
2009-03-07, 03:49:00,VALID,916.628,VALID,0,VALID,100,VALID,-0.0339617,VALID,20.3596,VALID,34,VALID,0.00870028
2009-03-07, 03:50:00,VALID,916.623,VALID,0,VALID,100,VALID,-0.0339617,VALID,20.372,VALID,33,VALID,0.0012718